星链-31048 (STARLINK-31048 )

导读

STARLINK-31048是美国SpaceX星链互联网星座的组成卫星,于2023年12月8日发射入轨。作为Starlink低轨卫星互联网项目的批量卫星之一,它承担为全球偏远地区、移动场景等提供高速低延迟宽带互联网接入服务的任务,依托低轨部署,星链卫星可实现更优的网络信号覆盖与传输效率。

Basic Information
目录编号:
58544
目录名称:
STARLINK-31048
国际标识:
2023-192P
轨道中心:
EARTH
卫星名称:
星链-31048
卫星全名:
星链-31048 (STARLINK-31048 )
卫星状态:
在轨 (已飞行920 天)
发射日期:
2023-12-08 UTC
国别 :
美国 (US)
星等 :
--
Orbit Information
数据来源 国际轨道数据 AOE轨道数据
星历时间 2026-06-15T02:40:54+0800
9小时前
查看轨道信息
2026-06-15T07:00:00+0800
5小时前
查看轨道信息
半长轴 6853.375km 6853.352km
偏心率 0.0001222 0.0001021
轨道倾角 53.161° 53.162°
近地点辐角 90.919° 117.778°
升交点赤经 331.479° 330.643°
平近点角 269.195° 154.072°
近地点 474.4km 474.515km
远地点 476.076km 475.915km
周期 94.106分钟 94.105分钟
每日圈数 15.301925 15.302002
Detailed Information
固有亮度:
5
最大亮度:
0.3
卫星平台:
Starlink v2.0 mini
覆盖范围:
全球
运营商:
太空探索技术公司
运营商所在国:
美国
制造商(研发单位):
太空探索技术公司
制造商所在国:
美国
使用方式:
暂无
Satellite Introduction
星链(Starlink)计划是由太空探索技术公司(SpaceX)提出的一个巨型低轨卫星互联网星座项目,计划在2019年至2024年间在太空搭建由约1.2万颗卫星组成的“星链”网络,其中1584颗将部署在地球上空550千米处的近地轨道,并从2020年开始工作。该卫星仍在工作。
2D Orbit Map
3D Orbit Map
Orbit Altitude Analysis Chart
Orbit Inclination Analysis Chart
Orbit Comprehensive Analysis Chart
View Comprehensive Chart